Weather History for Chesapeake, VA

Change the Weather History Date:

Friday, November 30, 2012

  Actual Average (KORF) Record (KORF)
Temperature  
Mean Temperature 44 °F 48 °F  
Max Temperature 60 °F 57 °F 79 °F (2001)
Min Temperature 28 °F 40 °F 17 °F (1929)
Degree Days  
Heating Degree Days 21 17  
Month to date heating degree days 371  
Since 1 July heating degree days 530  
Cooling Degree Days 0 0  
Month to date cooling degree days 8  
Year to date cooling degree days 1628  
Moisture  
Dew Point 34 °F    
Average Humidity 77    
Maximum Humidity 100    
Minimum Humidity 41    
Precipitation  
Precipitation 0.00 in 0.11 in 1.78 in (1985)
Month to date precipitation 3.15  
Year to date precipitation 43.27  
Snow  
Snow 0.00 in 0.00 in 0.10 in (1947)
Month to date snowfall T  
Since 1 July snowfall T  
Snow Depth -    
Sea Level Pressure  
Sea Level Pressure 30.37 in    
Wind  
Wind Speed 2 mph (SSW)    
Max Wind Speed 9 mph    
Max Gust Speed -    
Visibility 8 miles    
Events      
T = Trace of Precipitation, MM = Missing Value Source: NWS Daily Summary

Daily Weather History Graph

Daily Weather History Graph

Search for Another Location

Airport:

Trip Planner

Search our weather history database for the weather conditions in past years. The results will help you decide how hot, cold, wet, or windy it might be!

Date:

Astronomy

Nov. 30, 2012 Rise Set
Actual Time 6:58 AM EST 4:49 PM EST
Civil Twilight 6:30 AM EST 5:17 PM EST
Nautical Twilight 5:58 AM EST 5:49 PM EST
Astronomical Twilight 5:27 AM EST 6:21 PM EST
Moon 6:42 PM EST (11/30) 8:29 AM EST (11/30)
Length of Visible Light 10h 47m
Length of Day
9h 51m
Waning Gibbous, 96% of the Moon is Illuminated
Nov 30
Waning Gibbous
Dec 6
Last Quarter
Dec 13
New
Dec 20
First Quarter
Dec 28
Full

Hourly Weather History & Observations

Time (EST) Temp. Windchill Dew Point Humidity Pressure Visibility Wind Dir Wind Speed Gust Speed Precip Events Conditions
12:15 AM 30.2 °F - 30.2 °F 100% 30.41 in 7.0 mi Calm Calm - N/A   Clear
12:35 AM 28.4 °F - 28.4 °F 100% 30.41 in 7.0 mi Calm Calm - N/A   Clear
12:55 AM 30.2 °F - 30.2 °F 100% 30.40 in 5.0 mi Calm Calm - N/A   Clear
1:15 AM 28.4 °F - 28.4 °F 100% 30.40 in 7.0 mi Calm Calm - N/A   Clear
1:35 AM 30.2 °F - 28.4 °F 93% 30.40 in 7.0 mi Calm Calm - N/A   Clear
1:55 AM 30.2 °F - 30.2 °F 100% 30.40 in 7.0 mi Calm Calm - N/A   Clear
2:15 AM 28.4 °F - 28.4 °F 100% 30.40 in 5.0 mi Calm Calm - N/A   Clear
2:35 AM 28.4 °F - 28.4 °F 100% 30.40 in 5.0 mi Calm Calm - N/A   Clear
2:55 AM 28.4 °F - 28.4 °F 100% 30.39 in 7.0 mi Calm Calm - N/A   Clear
3:15 AM 28.4 °F - 28.4 °F 100% 30.39 in 5.0 mi Calm Calm - N/A   Clear
3:35 AM 28.4 °F - 28.4 °F 100% 30.39 in 5.0 mi Calm Calm - N/A   Clear
3:55 AM 28.4 °F - 28.4 °F 100% 30.39 in 4.0 mi Calm Calm - N/A   Clear
4:15 AM 28.4 °F - 28.4 °F 100% 30.39 in 5.0 mi Calm Calm - N/A   Clear
4:35 AM 28.4 °F - 28.4 °F 100% 30.39 in 5.0 mi Calm Calm - N/A   Clear
4:55 AM 28.4 °F - 28.4 °F 100% 30.39 in 5.0 mi Calm Calm - N/A   Clear
5:15 AM 28.4 °F - 28.4 °F 100% 30.39 in 5.0 mi Calm Calm - N/A   Clear
5:35 AM 28.4 °F - 28.4 °F 100% 30.39 in 5.0 mi Calm Calm - N/A   Clear
5:55 AM 28.4 °F - 28.4 °F 100% 30.39 in 7.0 mi Calm Calm - N/A   Clear
6:15 AM 28.4 °F - 28.4 °F 100% 30.39 in 5.0 mi Calm Calm - N/A   Clear
6:35 AM 28.4 °F - 28.4 °F 100% 30.40 in 5.0 mi Calm Calm - N/A   Clear
6:55 AM 28.4 °F - 28.4 °F 100% 30.40 in 5.0 mi Calm Calm - N/A   Clear
7:15 AM 28.4 °F - 28.4 °F 100% 30.40 in 7.0 mi Calm Calm - N/A   Clear
7:35 AM 30.2 °F - 30.2 °F 100% 30.40 in 4.0 mi Calm Calm - N/A   Clear
7:55 AM 30.2 °F - 30.2 °F 100% 30.40 in 5.0 mi Calm Calm - N/A   Clear
8:15 AM 33.8 °F - 32.0 °F 93% 30.41 in 4.0 mi Calm Calm - N/A   Clear
8:35 AM 35.6 °F - 35.6 °F 100% 30.41 in 4.0 mi Calm Calm - N/A   Clear
8:55 AM 39.2 °F 35.9 °F 35.6 °F 87% 30.42 in 10.0 mi South 4.6 mph - N/A   Clear
9:15 AM 42.8 °F 40.1 °F 37.4 °F 81% 30.42 in 10.0 mi SSW 4.6 mph - N/A   Clear
9:35 AM 44.6 °F 42.2 °F 35.6 °F 71% 30.43 in 10.0 mi SW 4.6 mph - N/A   Clear
9:55 AM 46.4 °F 45.2 °F 37.4 °F 71% 30.43 in 10.0 mi SSW 3.5 mph - N/A   Clear
10:15 AM 48.2 °F - 37.4 °F 66% 30.42 in 10.0 mi SSW 4.6 mph - N/A   Clear
10:35 AM 50.0 °F - 37.4 °F 62% 30.42 in 10.0 mi South 5.8 mph - N/A   Clear
10:55 AM 51.8 °F - 35.6 °F 54% 30.41 in 10.0 mi SSW 8.1 mph - N/A   Clear
11:15 AM 53.6 °F - 35.6 °F 51% 30.40 in 10.0 mi SSW 6.9 mph - N/A   Clear
11:35 AM 55.4 °F - 35.6 °F 47% 30.39 in 10.0 mi SW 6.9 mph - N/A   Clear
11:55 AM 55.4 °F - 35.6 °F 47% 30.38 in 10.0 mi SW 4.6 mph - N/A   Clear
12:15 PM 57.2 °F - 33.8 °F 41% 30.37 in 10.0 mi SW 6.9 mph - N/A   Clear
12:35 PM 57.2 °F - 35.6 °F 44% 30.36 in 10.0 mi SW 6.9 mph - N/A   Clear
12:55 PM 57.2 °F - 35.6 °F 44% 30.35 in 10.0 mi SSW 6.9 mph - N/A   Clear
1:15 PM 59.0 °F - 35.6 °F 42% 30.34 in 10.0 mi SW 6.9 mph - N/A   Clear
1:35 PM 60.8 °F - 37.4 °F 42% 30.33 in 10.0 mi SW 5.8 mph - N/A   Clear
1:55 PM 60.8 °F - 37.4 °F 42% 30.33 in 10.0 mi South 9.2 mph - N/A   Clear
2:15 PM 60.8 °F - 37.4 °F 42% 30.32 in 10.0 mi SSW 5.8 mph - N/A   Clear
2:35 PM 59.0 °F - 37.4 °F 45% 30.31 in 10.0 mi SSW 9.2 mph - N/A   Clear
2:55 PM 60.8 °F - 37.4 °F 42% 30.31 in 10.0 mi South 8.1 mph - N/A   Clear
3:15 PM 59.0 °F - 37.4 °F 45% 30.32 in 10.0 mi SSW 9.2 mph - N/A   Clear
3:35 PM 57.2 °F - 37.4 °F 48% 30.32 in 10.0 mi South 6.9 mph - N/A   Clear
3:55 PM 57.2 °F - 37.4 °F 48% 30.32 in 10.0 mi South 5.8 mph - N/A   Clear
4:15 PM 57.2 °F - 37.4 °F 48% 30.32 in 10.0 mi South 5.8 mph - N/A   Clear
4:35 PM 53.6 °F - 37.4 °F 54% 30.33 in 10.0 mi South 3.5 mph - N/A   Clear
4:55 PM 53.6 °F - 37.4 °F 54% 30.33 in 10.0 mi South 3.5 mph - N/A   Clear
5:15 PM 50.0 °F - 37.4 °F 62% 30.33 in 10.0 mi SSE 3.5 mph - N/A   Clear
5:35 PM 51.8 °F - 37.4 °F 58% 30.33 in 10.0 mi SSE 4.6 mph - N/A   Clear
5:55 PM 51.8 °F - 37.4 °F 58% 30.33 in 10.0 mi SSE 4.6 mph - N/A   Clear
6:15 PM 51.8 °F - 37.4 °F 58% 30.34 in 10.0 mi Calm Calm - N/A   Clear
6:35 PM 46.4 °F 45.2 °F 37.4 °F 71% 30.34 in 10.0 mi SSE 3.5 mph - N/A   Clear
7:15 PM 46.4 °F 44.3 °F 37.4 °F 71% 30.34 in 10.0 mi SSE 4.6 mph - N/A   Clear
7:35 PM 48.2 °F - 37.4 °F 66% 30.34 in 10.0 mi SSE 3.5 mph - N/A   Clear
7:55 PM 46.4 °F - 37.4 °F 71% 30.35 in 10.0 mi Calm Calm - N/A   Clear
8:15 PM 44.6 °F - 37.4 °F 76% 30.35 in 10.0 mi Calm Calm - N/A   Clear
8:35 PM 44.6 °F - 37.4 °F 76% 30.35 in 10.0 mi Calm Calm - N/A   Clear
8:55 PM 42.8 °F - 37.4 °F 81% 30.36 in 10.0 mi Calm Calm - N/A   Clear
9:15 PM 41.0 °F - 37.4 °F 87% 30.36 in 10.0 mi Calm Calm - N/A   Clear
9:35 PM 39.2 °F - 35.6 °F 87% 30.36 in 10.0 mi Calm Calm - N/A   Clear
9:55 PM 37.4 °F - 35.6 °F 93% 30.36 in 10.0 mi Calm Calm - N/A   Clear
10:15 PM 39.2 °F - 37.4 °F 93% 30.36 in 10.0 mi Calm Calm - N/A   Clear
10:35 PM 37.4 °F - 35.6 °F 93% 30.36 in 10.0 mi Calm Calm - N/A   Clear
10:55 PM 37.4 °F - 35.6 °F 93% 30.36 in 10.0 mi Calm Calm - N/A   Clear
11:15 PM 35.6 °F - 33.8 °F 93% 30.36 in 10.0 mi Calm Calm - N/A   Clear
11:35 PM 35.6 °F - 35.6 °F 100% 30.36 in 7.0 mi Calm Calm - N/A   Clear
11:55 PM 35.6 °F - 35.6 °F 100% 30.36 in 10.0 mi Calm Calm - N/A   Clear